Regional Weather Roundup
Issued by NWS

Home | Current Version | Previous Version | Text Only | Print | Product List | Glossary Off
Versions: 1 2 3 4 5 6 7 8 9 10 11 12 13 14 15 16 17 18 19 20 21 22 23 24 25 26 27 28 29 30 31 32 33 34 35 36 37 38 39 40 41 42 43 44 45 46 47 48 49 50

000
ASUS43 KOAX 202102
RWRNE

WEATHER ROUNDUP FOR NEBRASKA
NATIONAL WEATHER SERVICE OMAHA NE
400 PM CDT FRI APR 20 2018

NOTES: SATELLITE DATA IS BEING USED TO AUGMENT CLOUD COVER ABOVE
       12000 FEET.
       "FAIR" INDICATES FEW OR NO CLOUDS BELOW 12,000 FEET WITH NO
       SIGNIFICANT WEATHER AND/OR OBSTRUCTIONS TO VISIBILITY.


NEZ001>004-019>022-054>056-202200-
NEBRASKA PANHANDLE

CITY           SKY/WX    TMP DP  RH WIND       PRES   REMARKS
SCOTTSBLUFF    CLOUDY    39  36  89 SE26G33   30.07  WCI  28
ALLIANCE       CLOUDY    34  34 100 SE20G29   30.12S FOG     WCI  23
CHADRON        CLOUDY    42  35  76 SE23G30   30.13R
GORDON         LGT RAIN  38  36  91 S15G22    30.17S WCI  30
KIMBALL        CLOUDY    37  34  90 SE26G37   30.03F WCI  25
SIDNEY         CLOUDY    34  33  96 SE22G30   30.08S FOG     WCI  22
$$

NEZ057>060-069>072-079>082-202200-
SOUTHWEST NEBRASKA

CITY           SKY/WX    TMP DP  RH WIND       PRES   REMARKS
NORTH PLATTE   CLOUDY    48  32  53 S8        30.24R
IMPERIAL       LGT RAIN  41  38  89 E18G26    30.17F
LEXINGTON      CLOUDY    51  32  49 SE9       30.24F
MCCOOK         CLOUDY    50  34  54 E14       30.19F
OGALLALA       DRIZZLE   39  37  94 E14       30.18F WCI  30
$$

NEZ005>010-023>029-035>040-094-202200-
NORTH CENTRAL NEBRASKA

CITY           SKY/WX    TMP DP  RH WIND       PRES   REMARKS
VALENTINE      CLOUDY    48  36  63 S9        30.24F
AINSWORTH      CLOUDY    47  34  58 S8        30.26F
BROKEN BOW     CLOUDY    52  32  46 SE10      30.23F
O`NEILL        CLOUDY    54  33  44 S8        30.30R
ORD            CLOUDY    54  32  43 SE8       30.25S
THEDFORD       CLOUDY    48  32  54 SE8       30.23F
$$

NEZ041-046>049-061>064-073>077-083>087-202200-
SOUTH CENTRAL NEBRASKA

CITY           SKY/WX    TMP DP  RH WIND       PRES   REMARKS
GRAND ISLAND   PTSUNNY   56  30  37 SE9       30.27R
AURORA         CLOUDY    57  28  33 S8        30.27R
HASTINGS       CLOUDY    55  30  38 S9        30.26R
HEBRON         CLOUDY    60  28  29 SE13      30.23S
HOLDREGE       CLOUDY    52  33  48 S12       30.24F
KEARNEY        CLOUDY    54  32  43 SE10      30.25F
YORK             N/A     57  28  33 SE9       30.25S
$$

NEZ011>018-030>034-042>045-202200-
NORTHEAST NEBRASKA

CITY           SKY/WX    TMP DP  RH WIND       PRES   REMARKS
NORFOLK        CLOUDY    56  28  34 SE17      30.24F
ALBION         CLOUDY    57  32  37 S10       30.29R
BLAIR          MOSUNNY   60  28  29 S14G20    30.30S
COLUMBUS       CLOUDY    60  29  30 SE16      30.26F
FREMONT        CLOUDY    61  29  30 E15       30.29F
TEKAMAH        CLOUDY    59  27  29 SE14      30.30F
WAYNE          CLOUDY    57  27  30 SE14      30.30S
$$

NEZ050>053-065>068-078-088>093-202200-
SOUTHEAST NEBRASKA

CITY           SKY/WX    TMP DP  RH WIND       PRES   REMARKS
LINCOLN        CLOUDY    62  26  25 SE14      30.27F
OMAHA EPPLEY   CLOUDY    62  26  25 E13G24    30.29F
BEATRICE       MOSUNNY   63  30  29 SE13G22   30.24F
FALLS CITY     CLOUDY    62  26  25 SE16G25   30.25F
NEBRASKA CITY  CLOUDY    62  31  31 SE12G20   30.27F
PLATTSMOUTH    MOSUNNY   62  28  27 SE12      30.28F
$$

NEZ044-045-051>053-067-202200-
OMAHA AREA

CITY           SKY/WX    TMP DP  RH WIND       PRES   REMARKS
OMAHA EPPLEY   CLOUDY    62  26  25 E13G24    30.29F
BLAIR          MOSUNNY   60  28  29 S14G20    30.30S
FREMONT        CLOUDY    61  29  30 E15       30.29F
MILLARD        PTSUNNY   62  30  30 SE13      30.28F
OFFUTT AFB     MOSUNNY   62  28  27 E12G22    30.28F
PLATTSMOUTH    MOSUNNY   62  28  27 SE12      30.28F
$$




USA.gov is the U.S. government's official web portal to all federal, state and local government web resources and services.